Lid_Strength_Index
16 16 16 16 16 17 19 16 17 16 18 15 15 16 15 15 14 13 12 11 10 10 11 10 10 9 8 7 7 7 7 7 7 7 6 6 6 6 6 5 5 4 4 4
16 17 17 17 16 16 17 17 18 17 17 15 15 15 15 15 15 13 13 12 10 10 11 10 10 9 8 8 8 7 7 7 6 7 6 6 7 7 6 6 6 5 5 4
15 17 17 16 15 16 16 16 16 17 15 16 16 16 15 15 15 13 13 11 11 11 11 10 9 9 8 8 7 8 8 7 7 7 7 6 6 7 7 6 6 6 5 5
15 16 16 15 16 14 15 15 15 16 16 16 15 15 14 14 15 12 12 11 10 10 10 9 9 8 8 8 8 8 8 8 8 7 7 7 6 7 7 7 7 7 6 6
15 16 14 17 17 16 16 14 14 15 15 15 15 15 16 14 14 12 12 11 10 9 9 9 9 8 8 8 8 8 8 8 8 7 7 7 7 7 6 7 7 7 7 6
17 16 16 14 16 15 15 15 14 14 15 16 16 17 16 15 14 13 11 10 10 9 10 10 9 9 8 9 9 8 8 8 8 8 7 7 7 7 6 6 6 6 7 7
16 14 13 15 16 15 15 13 14 14 14 15 16 15 15 14 14 12 11 11 9 10 11 10 10 9 9 9 9 8 7 7 7 7 8 7 6 7 6 6 6 7 7 7
18 16 15 16 17 16 13 14 14 14 14 15 15 15 15 15 14 13 12 11 10 10 10 10 10 10 9 10 8 7 7 8 8 7 8 8 7 7 6 6 6 7 7 7
13 12 14 15 14 14 13 14 14 14 14 14 15 15 15 15 14 13 12 12 10 11 10 9 10 10 10 9 8 8 8 8 8 7 7 7 8 7 7 7 7 8 7 7
14 14 14 15 15 15 14 14 13 13 14 14 15 15 15 14 14 13 12 12 11 11 10 9 9 10 10 9 8 8 8 8 8 8 8 8 7 7 7 7 7 7 8 8
14 14 16 15 14 14 15 14 14 14 14 14 15 16 15 14 14 13 13 12 12 11 10 9 9 10 10 9 8 8 8 8 8 8 8 8 8 8 8 7 7 8 7 7
11 11 11 12 13 14 15 15 14 15 15 14 15 15 14 14 14 13 13 13 12 12 11 10 9 9 9 9 8 8 9 8 9 8 8 8 8 8 7 8 7 7 7 7
10 13 16 15 13 14 14 14 14 14 14 15 15 14 14 14 14 13 13 13 13 12 11 10 10 9 9 9 9 8 9 8 9 9 8 8 8 9 9 7 7 7 7 7
14 15 17 16 16 14 14 14 14 14 14 15 15 14 14 14 14 14 14 13 13 12 12 11 10 10 8 9 9 8 9 9 8 8 8 8 8 9 8 9 9 8 7 7
15 14 15 14 15 15 14 14 16 16 16 16 15 15 14 14 14 14 13 13 13 13 12 12 11 10 8 9 8 8 9 9 8 8 8 9 8 9 9 9 9 9 8 7
15 15 15 16 16 15 15 15 16 16 16 16 15 15 14 14 14 14 13 13 14 14 13 12 12 11 9 9 9 8 8 9 9 9 9 8 8 9 9 9 9 9 9 8
16 17 16 16 16 16 16 15 15 16 16 16 16 14 14 14 14 14 14 14 14 13 13 13 12 10 10 9 9 9 9 8 10 9 9 9 9 9 9 9 9 9 9 9
12 12 14 14 15 15 15 15 15 16 16 16 15 15 14 14 14 14 14 14 14 14 13 13 12 11 10 10 10 10 9 9 9 9 9 9 9 9 9 9 9 9 9 9
13 12 13 14 15 15 15 15 15 15 16 16 16 15 14 14 14 14 14 15 15 15 14 13 12 12 11 11 10 10 10 10 9 10 9 9 9 10 10 9 9 9 9 9
14 13 13 14 14 15 15 15 15 16 16 16 16 15 15 14 14 14 14 15 15 14 13 13 12 12 11 11 12 10 11 11 10 10 10 10 9 9 9 10 10 10 9 9
13 14 14 15 15 15 15 15 15 16 16 16 16 15 15 14 14 14 15 15 15 13 13 13 12 12 11 12 11 13 13 12 11 11 11 10 10 10 10 9 10 10 10 10
13 14 14 15 15 16 15 15 15 16 16 16 15 15 15 15 15 15 14 15 14 14 13 13 12 12 12 12 12 13 13 13 14 13 13 12 11 11 10 10 10 10 10 10
13 14 15 15 16 16 15 15 16 16 16 16 16 15 15 14 14 15 16 14 14 14 14 13 13 12 12 12 13 13 13 14 14 14 14 13 13 12 11 11 10 10 10 9
14 14 15 15 15 16 16 16 16 16 16 16 15 14 14 15 15 14 13 14 14 14 14 13 13 13 13 13 13 13 13 13 13 13 13 13 13 13 13 13 12 11 10 10
14 14 15 16 16 16 16 16 16 16 16 16 15 14 14 13 13 14 14 14 14 15 14 13 13 13 13 13 13 13 14 13 13 13 13 13 13 13 13 13 13 12 11 11
15 15 15 15 15 15 16 16 16 16 16 17 16 15 14 14 14 14 15 15 15 15 14 14 13 14 13 13 14 14 14 14 13 13 13 13 13 13 13 13 13 13 12 11
14 14 15 15 15 15 16 15 16 16 16 16 16 15 14 14 15 15 15 15 15 15 15 14 14 14 13 13 13 13 13 13 13 13 13 13 13 13 13 13 12 12 12 11